| time (UTC) | temp C | wind direction | speed KPH | gust KPH | rain 1hr cm | rain 24hr cm | rain mn cm | humidity % | barometer mb |
| 20260901174521 | 21 | 161 | 0.0 | 4.8 | 0.00 | 0.00 | 0.00 | 40 | 1009.7 |
| 20260901173018 | 20 | 161 | 1.6 | 6.4 | 0.00 | 0.00 | 0.00 | 42 | 1010.0 |
| 20260901171513 | 18 | 161 | 0.0 | 3.2 | 0.00 | 0.00 | 0.00 | 45 | 1010.4 |
| 20260901170010 | 17 | 161 | 0.0 | 3.2 | 0.00 | 0.00 | 0.00 | 45 | 1010.7 |
| 20260901164508 | 17 | 161 | 0.0 | 3.2 | 0.00 | 0.00 | 0.00 | 46 | 1010.8 |
| 20260901163004 | 16 | 161 | 0.0 | 3.2 | 0.00 | 0.00 | 0.00 | 48 | 1011.0 |
| 20260901161503 | 16 | 161 | 0.0 | 1.6 | 0.00 | 0.00 | 0.00 | 48 | 1011.0 |
| 20260901160059 | 15 | 161 | 0.0 | 1.6 | 0.00 | 0.00 | 0.00 | 52 | 1011.1 |
| 20260901154555 | 14 | 161 | 0.0 | 3.2 | 0.00 | 0.00 | 0.00 | 54 | 1011.2 |
| 20260901153056 | 13 | 161 | 0.0 | 0.0 | 0.00 | 0.00 | 0.00 | 56 | 1011.3 |
| 20260901151549 | 12 | 162 | 0.0 | 0.0 | 0.00 | 0.00 | 0.00 | 60 | 1011.5 |
| 20260901150049 | 12 | 162 | 0.0 | 0.0 | 0.00 | 0.00 | 0.00 | 62 | 1011.6 |
| 20260901144542 | 10 | 161 | 0.0 | 1.6 | 0.00 | 0.00 | 0.00 | 67 | 1011.6 |
| 20260901143042 | 9 | 162 | 0.0 | 0.0 | 0.00 | 0.00 | 0.00 | 70 | 1011.7 |
| 20260901141541 | 8 | 161 | 0.0 | 0.0 | 0.00 | 0.00 | 0.00 | 73 | 1011.7 |
| 20260901140039 | 6 | 161 | 0.0 | 0.0 | 0.00 | 0.00 | 0.00 | 78 | 1011.7 |
| 20260901134539 | 5 | 161 | 0.0 | 0.0 | 0.00 | 0.00 | 0.00 | 80 | 1011.8 |
| 20260901133037 | 3 | 161 | 0.0 | 0.0 | 0.00 | 0.00 | 0.00 | 83 | 1011.6 |
| 20260901131537 | 4 | 161 | 0.0 | 0.0 | 0.00 | 0.00 | 0.00 | 80 | 1011.5 |
| 20260901130036 | 4 | 161 | 0.0 | 0.0 | 0.00 | 0.00 | 0.00 | 82 | 1011.5 |
| 20260901124532 | 4 | 161 | 0.0 | 0.0 | 0.00 | 0.00 | 0.00 | 80 | 1011.4 |
| 20260901123034 | 5 | 161 | 0.0 | 0.0 | 0.00 | 0.00 | 0.00 | 79 | 1011.4 |
| 20260901121527 | 5 | 162 | 0.0 | 0.0 | 0.00 | 0.00 | 0.00 | 79 | 1011.2 |
| 20260901120025 | 5 | 161 | 0.0 | 0.0 | 0.00 | 0.00 | 0.00 | 78 | 1011.1 |
| 20260901114524 | 5 | 161 | 0.0 | 0.0 | 0.00 | 0.00 | 0.00 | 78 | 1011.2 |
| 20260901113024 | 5 | 161 | 0.0 | 0.0 | 0.00 | 0.00 | 0.00 | 79 | 1011.2 |
| 20260901111522 | 5 | 162 | 0.0 | 0.0 | 0.00 | 0.00 | 0.00 | 77 | 1011.2 |
| 20260901110020 | 5 | 161 | 0.0 | 0.0 | 0.00 | 0.00 | 0.00 | 76 | 1011.1 |
| 20260901104518 | 6 | 161 | 0.0 | 0.0 | 0.00 | 0.00 | 0.00 | 77 | 1010.9 |
| 20260901103016 | 5 | 161 | 0.0 | 0.0 | 0.00 | 0.00 | 0.00 | 76 | 1010.9 |
| 20260901101513 | 6 | 161 | 0.0 | 0.0 | 0.00 | 0.00 | 0.00 | 75 | 1010.8 |
| 20260901100011 | 6 | 162 | 0.0 | 0.0 | 0.00 | 0.00 | 0.00 | 74 | 1010.8 |
| 20260901094508 | 7 | 161 | 0.0 | 0.0 | 0.00 | 0.00 | 0.00 | 72 | 1010.8 |
| 20260901093007 | 7 | 161 | 0.0 | 0.0 | 0.00 | 0.00 | 0.00 | 73 | 1010.7 |
| 20260901091504 | 7 | 161 | 0.0 | 0.0 | 0.00 | 0.00 | 0.00 | 72 | 1010.7 |
| 20260901090006 | 7 | 161 | 0.0 | 0.0 | 0.00 | 0.00 | 0.00 | 72 | 1010.4 |
| 20260901084503 | 7 | 161 | 0.0 | 0.0 | 0.00 | 0.00 | 0.00 | 70 | 1010.5 |
| 20260901083100 | 8 | 161 | 0.0 | 0.0 | 0.00 | 0.00 | 0.00 | 70 | 1010.6 |
| 20260901081558 | 8 | 162 | 0.0 | 0.0 | 0.00 | 0.00 | 0.00 | 69 | 1010.5 |
| 20260901080057 | 8 | 162 | 0.0 | 1.6 | 0.00 | 0.00 | 0.00 | 69 | 1010.4 |
| 20260901074606 | 8 | 162 | 0.0 | 3.2 | 0.00 | 0.00 | 0.00 | 69 | 1010.5 |
| 20260901073052 | 8 | 161 | 0.0 | 1.6 | 0.00 | 0.00 | 0.00 | 68 | 1010.4 |
| 20260901071553 | 9 | 161 | 0.0 | 3.2 | 0.00 | 0.00 | 0.00 | 67 | 1010.4 |
| 20260901070050 | 9 | 161 | 0.0 | 0.0 | 0.00 | 0.00 | 0.00 | 66 | 1010.4 |
| 20260901064548 | 9 | 161 | 0.0 | 0.0 | 0.00 | 0.00 | 0.00 | 66 | 1010.5 |
| 20260901063046 | 10 | 161 | 0.0 | 0.0 | 0.00 | 0.00 | 0.00 | 66 | 1010.5 |
| 20260901061544 | 10 | 161 | 0.0 | 0.0 | 0.00 | 0.00 | 0.00 | 64 | 1010.7 |
| 20260901060041 | 10 | 161 | 0.0 | 1.6 | 0.00 | 0.00 | 0.00 | 64 | 1010.4 |
| 20260901054541 | 10 | 161 | 0.0 | 3.2 | 0.00 | 0.00 | 0.00 | 62 | 1010.6 |
| 20260901053050 | 11 | 161 | 0.0 | 0.0 | 0.00 | 0.00 | 0.00 | 62 | 1010.6 |
| 20260901051541 | 11 | 161 | 0.0 | 0.0 | 0.00 | 0.00 | 0.00 | 62 | 1010.6 |
| 20260901050040 | 11 | 161 | 0.0 | 3.2 | 0.00 | 0.00 | 0.00 | 60 | 1010.6 |
| 20260901044540 | 12 | 161 | 0.0 | 1.6 | 0.00 | 0.00 | 0.00 | 60 | 1010.6 |
| 20260901043040 | 13 | 161 | 0.0 | 3.2 | 0.00 | 0.00 | 0.00 | 56 | 1010.7 |
| 20260901041543 | 15 | 162 | 0.0 | 1.6 | 0.00 | 0.00 | 0.00 | 53 | 1010.6 |
| 20260901040045 | 15 | 161 | 0.0 | 1.6 | 0.00 | 0.00 | 0.00 | 52 | 1010.6 |
| 20260901034537 | 16 | 161 | 0.0 | 3.2 | 0.00 | 0.00 | 0.00 | 49 | 1010.5 |
| 20260901033037 | 17 | 161 | 0.0 | 3.2 | 0.00 | 0.00 | 0.00 | 45 | 1010.4 |
| 20260901031536 | 18 | 161 | 1.6 | 4.8 | 0.00 | 0.00 | 0.00 | 43 | 1010.3 |
| 20260901030035 | 18 | 161 | 1.6 | 6.4 | 0.00 | 0.00 | 0.00 | 41 | 1010.1 |
| 20260901024535 | 19 | 161 | 4.8 | 8.0 | 0.00 | 0.00 | 0.00 | 39 | 1009.9 |
| 20260901023034 | 21 | 161 | 1.6 | 4.8 | 0.00 | 0.00 | 0.00 | 36 | 1009.8 |
| 20260901021534 | 22 | 161 | 1.6 | 3.2 | 0.00 | 0.00 | 0.00 | 35 | 1009.8 |
| 20260901020033 | 24 | 161 | 0.0 | 4.8 | 0.00 | 0.00 | 0.00 | 31 | 1009.8 |
| 20260901014532 | 25 | 161 | 3.2 | 6.4 | 0.00 | 0.00 | 0.00 | 30 | 1010.0 |
| 20260901013050 | 25 | 162 | 1.6 | 6.4 | 0.00 | 0.00 | 0.00 | 29 | 1010.1 |
| 20260901011537 | 27 | 161 | 1.6 | 8.0 | 0.00 | 0.00 | 0.00 | 27 | 1010.1 |
| 20260901010030 | 27 | 162 | 4.8 | 14.5 | 0.00 | 0.00 | 0.00 | 27 | 1010.1 |
| 20260901004529 | 27 | 161 | 8.0 | 11.3 | 0.00 | 0.00 | 0.00 | 26 | 1010.2 |
| 20260901003029 | 27 | 161 | 1.6 | 6.4 | 0.00 | 0.00 | 0.00 | 26 | 1010.3 |
| 20260901001530 | 27 | 161 | 3.2 | 11.3 | 0.00 | 0.00 | 0.00 | 25 | 1010.5 |
| 20260901000029 | 27 | 161 | 3.2 | 12.9 | 0.00 | 0.00 | 0.00 | 26 | 1010.6 |
| 20260831234523 | 27 | 161 | 4.8 | 9.7 | 0.00 | 0.00 | 0.00 | 25 | 1010.6 |
| 20260831233023 | 27 | 161 | 4.8 | 11.3 | 0.00 | 0.00 | 0.00 | 25 | 1010.6 |
| 20260831231517 | 27 | 161 | 1.6 | 8.0 | 0.00 | 0.00 | 0.00 | 25 | 1010.8 |
| 20260831230018 | 27 | 161 | 1.6 | 6.4 | 0.00 | 0.00 | 0.00 | 25 | 1011.1 |
| 20260831224513 | 27 | 161 | 0.0 | 6.4 | 0.00 | 0.00 | 0.00 | 26 | 1011.2 |
| 20260831223013 | 27 | 161 | 1.6 | 6.4 | 0.00 | 0.00 | 0.00 | 25 | 1011.4 |
| 20260831221510 | 27 | 161 | 1.6 | 6.4 | 0.00 | 0.00 | 0.00 | 27 | 1011.4 |
| 20260831220008 | 27 | 161 | 1.6 | 6.4 | 0.00 | 0.00 | 0.00 | 25 | 1011.8 |
| 20260831214506 | 26 | 161 | 1.6 | 9.7 | 0.00 | 0.00 | 0.00 | 27 | 1012.0 |
| 20260831213001 | 26 | 161 | 1.6 | 6.4 | 0.00 | 0.00 | 0.00 | 28 | 1012.4 |
| 20260831211559 | 26 | 161 | 1.6 | 11.3 | 0.00 | 0.00 | 0.00 | 28 | 1012.6 |
| 20260831210055 | 25 | 161 | 0.0 | 8.0 | 0.00 | 0.00 | 0.00 | 29 | 1012.9 |
| 20260831204600 | 25 | 161 | 1.6 | 8.0 | 0.00 | 0.00 | 0.00 | 28 | 1013.2 |
| 20260831203116 | 25 | 161 | 4.8 | 8.0 | 0.00 | 0.00 | 0.00 | 28 | 1013.5 |
| 20260831201601 | 24 | 161 | 0.0 | 4.8 | 0.00 | 0.00 | 0.00 | 30 | 1013.6 |
| 20260831200134 | 25 | 161 | 4.8 | 14.5 | 0.00 | 0.00 | 0.00 | 30 | 1013.6 |
| 20260831194551 | 24 | 161 | 1.6 | 4.8 | 0.00 | 0.00 | 0.00 | 30 | 1014.0 |
| 20260831193144 | 25 | 161 | 1.6 | 4.8 | 0.00 | 0.00 | 0.00 | 29 | 1014.3 |
| 20260831191539 | 24 | 161 | 1.6 | 4.8 | 0.00 | 0.00 | 0.00 | 30 | 1014.6 |
| 20260831190040 | 23 | 161 | 1.6 | 8.0 | 0.00 | 0.00 | 0.00 | 31 | 1014.9 |
| 20260831184534 | 23 | 161 | 0.0 | 4.8 | 0.00 | 0.00 | 0.00 | 32 | 1015.3 |
| 20260831183030 | 22 | 161 | 1.6 | 4.8 | 0.00 | 0.00 | 0.00 | 34 | 1015.7 |
| 20260831181531 | 21 | 161 | 1.6 | 8.0 | 0.00 | 0.00 | 0.00 | 34 | 1015.7 |
| 20260831180024 | 21 | 161 | 1.6 | 4.8 | 0.00 | 0.00 | 0.00 | 36 | 1016.0 |